Location: Atherton
(17.2661°S, 145.4859°E)
Time: 12:37:51
(UTC+10:00)

Vanguard 1 - Pass Details

Date: 27 June 2025
Orbit: 649 x 3822 km, 34.2° (Epoch: 05 July)

Event Time Altitude Azimuth Distance (km) Brightness Sun altitude
Rises 23:53:01 0° 235° (SW) 4,654 - -81.1°
Reaches altitude 10° 23:57:25 10° 222° (SW) 3,150 - -81.8°
Maximum altitude 00:02:57 23° 171° (S) 1,794 - -82.6°
Drops below altitude 10° 00:07:00 10° 117° (ESE) 2,236 - -83.1°
Sets 00:09:31 0° 101° (E) 3,022 - -83.4°
